SCP
2 2 2 2 2 2 1 1 1 0 0 0 0 0 0 0 0 0 0 0 0 0 0 0 0 0 0 0 0 0 0 0 0 0 1 1 1 1
3 2 2 2 2 2 2 1 1 1 0 0 0 0 0 0 0 0 0 0 0 0 0 0 0 0 0 0 0 0 0 0 0 0 0 1 1 0
3 2 2 1 2 2 1 1 1 1 0 0 0 0 0 0 0 0 0 0 0 0 0 0 0 0 0 0 0 0 0 0 0 0 0 0 0 0
3 2 1 1 1 1 1 1 1 1 0 0 0 0 0 0 0 0 0 0 0 0 0 0 0 0 0 0 0 0 0 0 0 0 0 0 0 0
4 3 2 1 1 1 1 1 1 1 1 0 0 0 0 0 0 0 0 0 0 0 0 0 0 0 0 0 0 0 0 0 0 0 0 0 0 0
4 3 2 2 1 1 0 0 0 0 0 0 0 0 0 0 0 0 0 0 0 0 0 0 0 0 0 0 0 0 0 0 0 0 0 0 0 0
4 4 3 2 2 1 0 0 0 0 0 0 0 0 0 0 0 0 0 0 0 0 0 0 0 0 0 0 0 0 0 0 0 0 0 0 0 0
4 4 3 2 1 1 0 0 0 0 0 0 0 0 0 0 0 0 0 0 0 0 0 0 0 0 0 0 0 0 0 0 0 0 0 0 0 0
3 3 3 2 1 0 0 0 0 0 0 0 0 0 0 0 0 0 0 0 0 0 0 0 0 0 0 0 0 0 0 0 0 0 0 0 0 0
2 2 2 1 1 0 0 0 0 0 0 0 0 0 0 0 0 0 0 0 0 0 0 0 0 0 0 0 0 0 0 0 0 0 0 0 0 0
1 1 1 1 0 0 0 0 0 0 0 0 0 0 0 0 0 0 0 0 0 0 0 0 0 0 0 0 0 0 0 0 0 0 0 0 0 0
1 1 1 1 0 0 0 0 0 0 0 0 0 0 0 0 0 0 0 0 0 0 0 0 0 0 0 0 0 0 0 0 0 0 0 0 0 0
2 2 1 1 0 0 0 0 0 0 0 0 0 0 0 0 0 0 0 0 0 0 0 0 0 0 0 0 0 0 0 0 0 0 0 0 0 0
2 2 1 1 0 0 0 0 0 0 0 0 0 0 0 0 0 0 0 0 0 0 0 0 0 0 0 0 0 0 0 0 0 0 0 0 0 0
1 1 1 1 0 0 0 0 0 0 0 0 0 0 0 0 0 0 0 0 0 0 0 0 0 0 0 0 0 0 0 0 0 0 0 0 0 0
1 1 1 1 0 0 0 0 0 0 0 0 0 0 0 0 0 0 0 0 0 0 0 0 0 0 0 0 0 0 0 0 0 0 0 0 0 0
1 1 1 1 1 1 1 1 1 1 1 0 0 0 0 0 0 0 0 0 0 0 0 0 0 0 0 0 0 0 0 0 0 0 0 0 0 0
0 1 1 2 2 2 1 1 1 1 1 0 0 0 0 0 0 0 0 0 0 0 0 0 0 0 0 0 0 0 0 0 0 0 0 0 0 0
0 1 1 2 2 2 2 2 2 2 1 1 0 0 0 0 0 0 0 0 0 0 0 0 0 0 0 0 0 0 0 0 0 0 0 0 0 0
0 1 1 1 2 2 2 2 2 2 1 1 0 0 0 0 0 0 0 0 0 0 0 0 0 0 0 0 0 0 0 0 0 0 0 0 0 0
0 0 1 1 1 2 2 2 2 1 1 0 0 0 0 0 0 0 0 0 0 0 0 0 0 0 0 0 0 0 0 0 0 0 0 0 0 0
0 0 0 1 1 1 2 1 1 1 0 0 0 0 0 0 0 0 0 0 0 0 0 0 0 0 0 0 0 0 0 0 0 0 0 0 0 0
0 0 0 1 1 1 1 1 1 1 0 0 0 0 0 0 0 0 0 0 0 0 0 0 0 0 0 0 0 0 0 0 0 0 0 0 0 0
Wind_Speed
3 3 3 2 3 3 3 3 3 3 3 2 1 1 0 0 0 1 1 2 3 2 3 3 3 2 2 2 2 2 2 1 2 2 3 3 4 4
2 2 2 2 2 2 3 3 3 3 3 1 1 1 1 1 2 2 2 4 5 4 4 4 3 3 3 3 3 2 2 3 3 3 3 2 2 3
2 2 1 1 1 2 2 2 2 2 2 1 1 0 1 1 2 2 2 2 3 5 5 5 4 4 4 4 4 4 4 4 3 3 3 3 3 3
2 2 1 1 1 1 1 2 2 2 3 2 1 1 1 1 2 2 2 2 2 4 5 5 5 4 4 4 4 4 4 4 4 4 4 4 4 4
2 2 2 2 1 1 1 2 1 2 2 3 2 1 1 1 2 2 2 2 2 3 4 5 6 6 6 5 5 5 5 5 5 5 5 4 4 4
2 2 2 3 2 2 2 2 2 2 2 3 2 1 1 1 2 2 1 1 1 2 3 3 4 5 5 6 6 6 6 6 6 6 6 6 5 5
2 2 2 2 3 2 2 2 3 2 2 2 2 2 1 2 2 1 2 1 1 1 1 1 2 2 2 3 4 5 6 6 5 5 5 5 5 5
3 2 2 2 2 2 3 3 4 3 3 3 2 3 3 3 2 3 3 2 1 1 1 0 1 1 1 1 3 4 5 5 5 5 5 5 5 5
3 2 1 1 1 2 3 3 2 2 3 4 4 3 3 4 4 4 3 2 2 2 2 1 0 0 0 1 3 4 4 4 4 5 5 5 5 5
2 2 2 1 2 3 3 3 2 2 1 2 2 3 3 4 4 4 4 3 2 1 2 2 1 1 1 1 2 3 3 3 3 4 4 4 3 3
1 1 2 2 3 4 3 3 2 1 2 2 2 2 3 4 5 4 4 3 2 1 1 2 1 1 1 1 2 3 3 3 3 3 3 3 3 3
1 1 1 2 3 4 3 3 2 1 1 2 2 2 2 4 6 4 4 3 2 2 3 2 2 2 1 1 1 2 3 3 4 3 3 3 3 3
2 1 1 2 3 3 3 2 3 2 2 2 2 2 2 2 2 2 3 3 3 2 3 4 2 2 1 1 1 2 3 2 3 3 4 4 4 4
3 2 2 3 3 3 2 3 3 3 2 2 1 1 1 1 1 2 2 2 2 2 4 5 3 3 3 2 2 2 3 3 3 3 3 4 5 6
2 3 3 4 3 2 2 3 3 2 2 2 1 1 1 1 1 1 1 1 1 1 3 4 3 3 3 3 2 2 2 3 4 4 4 4 4 4
2 3 4 4 3 2 2 1 1 2 2 2 1 1 1 1 1 1 1 1 1 2 2 4 4 4 4 4 3 3 3 3 3 4 4 4 4 5
4 3 2 2 2 1 1 1 1 1 1 1 1 1 1 1 1 1 1 1 2 2 2 2 3 3 4 4 3 4 4 3 3 3 4 5 5 6
5 2 2 2 2 2 2 1 1 1 1 2 1 2 2 1 1 1 1 1 2 2 2 2 1 1 2 4 6 5 4 4 3 4 4 5 6 6
3 2 2 2 2 2 2 1 1 1 1 2 2 2 2 1 1 1 1 1 2 3 3 2 2 3 3 4 4 8 5 4 3 4 5 5 6 6
2 2 2 2 2 2 2 1 1 1 1 1 1 1 1 2 2 2 2 2 3 3 3 2 3 4 5 5 4 3 8 6 5 5 5 4 5 5
1 1 1 1 1 1 1 1 1 1 0 1 1 1 1 1 2 2 2 3 3 3 4 4 4 5 3 2 3 4 4 8 8 5 4 4 4 4
1 1 1 1 1 1 1 1 1 0 0 0 1 1 1 1 2 2 2 2 2 3 4 4 3 2 3 4 5 5 4 3 6 9 8 7 5 5
1 1 1 1 1 1 0 0 1 0 0 1 1 1 1 2 2 2 2 2 2 3 3 3 2 2 3 4 5 5 6 5 3 3 5 9 11 11
Wind_Direction
217 216 220 224 213 210 198 192 194 216 235 219 225 238 201 107 99 128 123 103 92 83 89 88 91 91 97 104 100 91 97 110 133 159 180 188 192 202
218 217 218 216 209 207 206 208 207 204 220 206 210 203 166 110 89 86 90 92 82 79 76 74 81 89 92 92 92 84 94 110 119 125 136 151 167 177
206 196 200 183 193 201 198 196 198 188 208 219 167 114 115 110 82 74 76 78 78 79 77 76 81 88 94 95 91 94 100 103 106 107 112 117 120 136
202 184 200 188 192 204 197 198 193 185 188 204 177 161 134 130 105 88 75 80 79 79 80 78 80 86 90 93 94 97 97 98 97 92 91 94 107 117
193 191 197 181 204 211 201 194 186 176 177 180 176 150 130 122 109 92 80 64 72 76 78 75 77 79 82 88 93 93 93 93 90 87 85 85 92 103
194 196 197 200 206 203 197 192 178 164 159 162 155 142 127 119 131 133 107 72 61 61 64 66 73 77 79 84 91 92 94 95 91 88 87 84 84 92
198 208 217 212 193 185 182 181 168 160 157 158 153 143 149 158 171 158 156 123 83 70 81 58 62 63 66 82 94 95 93 95 97 96 93 92 93 96
204 213 225 223 200 176 166 156 155 166 176 173 174 181 189 182 159 157 158 158 183 174 158 111 92 85 56 80 85 98 100 100 102 105 104 101 102 104
207 208 218 189 145 132 130 124 121 141 172 175 183 195 191 185 169 170 178 180 189 162 159 168 151 202 217 118 119 117 116 116 115 118 118 113 109 110
200 200 194 179 157 145 132 115 101 91 127 162 183 194 192 180 179 171 161 145 115 119 163 177 177 201 197 190 160 151 140 133 136 139 139 134 127 121
168 173 174 175 166 149 140 137 128 98 81 103 119 124 129 143 150 142 146 151 172 184 174 184 173 186 206 212 196 188 172 158 157 157 159 157 156 156
164 157 164 179 169 157 157 157 165 188 134 104 93 92 116 141 155 166 169 168 164 192 177 178 166 164 206 205 208 206 204 200 193 187 181 180 181 185
190 179 162 162 167 165 163 171 183 158 130 121 107 98 105 126 156 168 177 177 179 201 174 173 170 178 198 205 215 213 206 208 206 209 205 201 198 196
194 181 162 155 155 157 157 150 144 134 129 124 116 113 123 156 182 185 189 199 212 204 175 173 177 181 183 199 217 210 213 213 206 212 213 207 210 211
182 163 154 148 141 131 144 152 148 146 149 151 177 216 225 216 172 168 163 187 210 214 176 186 191 183 195 208 210 206 213 213 207 216 218 217 218 212
161 135 129 126 123 117 116 134 153 166 176 192 212 230 193 165 180 195 206 202 216 238 212 202 205 198 210 218 213 220 214 218 214 218 225 229 225 221
141 129 130 134 132 130 132 146 161 164 178 198 202 204 192 190 229 217 214 206 220 240 237 211 216 222 225 216 221 227 226 229 228 214 217 233 232 226
136 148 158 167 178 187 192 196 191 197 201 193 203 213 215 216 225 220 215 222 244 257 258 233 190 191 219 230 217 230 233 236 234 217 217 233 243 233
141 157 163 178 187 188 191 200 213 211 199 194 211 224 225 230 232 231 226 239 257 264 260 231 208 208 233 255 234 207 223 234 229 224 222 228 245 246
148 161 171 182 192 190 189 196 203 186 188 204 213 225 227 229 232 238 238 248 262 271 271 242 227 228 236 254 260 234 212 220 223 230 230 233 249 255
150 155 162 174 184 180 175 172 177 181 202 221 229 238 237 236 242 247 248 249 251 264 271 270 262 247 242 243 256 258 239 219 221 226 221 226 239 242
149 156 133 125 144 155 158 154 154 171 278 254 262 258 251 246 254 258 257 258 256 262 271 278 280 241 219 236 255 266 269 256 234 230 225 223 229 236
152 143 124 116 115 118 129 138 151 206 265 264 261 264 260 256 260 264 267 268 273 277 280 283 283 258 248 249 259 265 266 266 257 248 245 239 240 251